Location: Izdebno
(52.6670°N, 16.2170°E)
Time: 14:55:40
(UTC+01:00)

Vanguard 2 - Pass Details

Date: 30 January 2023
Orbit: 553 x 2927 km, 32.9° (Epoch: 24 March)

Event Time Altitude Azimuth Distance (km) Brightness Sun altitude
Rises 20:50:16 0° 190° (S) 5,776 11.9 -38.0°
Enters shadow 20:53:47 - 180° (S) 5,349 11.6 -38.4°
Reaches altitude 10° 20:55:51 10° 173° (S) 5,159 - -38.7°
Maximum altitude 21:04:31 17° 139° (SE) 4,961 - -39.9°
Drops below altitude 10° 21:14:00 10° 106° (ESE) 5,760 - -41.2°
Sets 21:20:47 0° 90° (E) 6,731 - -42.1°
